This is the latest recevied weather packets stored in our database for station/object WC4PEM-8. If no packets are shown the sender has not sent any weather packets the latest 10 day(s).
| Time | Temp. | Humidity | Pressure | Rain* | Wind** | Luminosity | Snow |
|---|---|---|---|---|---|---|---|
| 1777322480 | 28.33° C | 59% | 1015.4 hPa | 0 mm | - | - | - |
| 1777322180 | 27.78° C | 61% | 1015.3 hPa | 0 mm | - | - | - |
| 1777321880 | 27.78° C | 62% | 1015.3 hPa | 0 mm | - | - | - |
| 1777321580 | 27.78° C | 62% | 1015.3 hPa | 0 mm | - | - | - |
| 1777321414 | 28.33° C | 62% | 1015.3 hPa | 0 mm | - | - | - |
| 1777321344 | 28.33° C | 62% | 1015.3 hPa | 0 mm | - | - | - |
| 1777321280 | 28.33° C | 62% | 1015.3 hPa | 0 mm | - | - | - |
| 1777320980 | 28.33° C | 61% | 1015.2 hPa | 0 mm | - | - | - |
| 1777320680 | 28.89° C | 59% | 1015.2 hPa | 0 mm | - | - | - |
| 1777320380 | 29.44° C | 58% | 1015.2 hPa | 0 mm | - | - | - |
| 1777320080 | 28.89° C | 58% | 1015.1 hPa | 0 mm | - | - | - |
| 1777319780 | 28.89° C | 57% | 1015.2 hPa | 0 mm | - | - | - |
| 1777319480 | 28.89° C | 57% | 1015.2 hPa | 0 mm | - | - | - |
| 1777319180 | 30.56° C | 54% | 1015.2 hPa | 0 mm | - | - | - |
| 1777319180 | 29.44° C | 56% | 1015.2 hPa | 0 mm | - | - | - |
| 1777318880 | 30.56° C | 54% | 1015.2 hPa | 0 mm | - | - | - |
| 1777318580 | 30° C | 56% | 1015.3 hPa | 0 mm | - | - | - |
| 1777318280 | 30° C | 53% | 1015.3 hPa | 0 mm | - | - | - |
| 1777317980 | 30.56° C | 54% | 1015.3 hPa | 0 mm | - | - | - |
| 1777317804 | 30.56° C | 55% | 1015.4 hPa | 0 mm | - | - | - |
| 1777317680 | 30.56° C | 55% | 1015.4 hPa | 0 mm | - | - | - |
| 1777317380 | 30.56° C | 54% | 1015.3 hPa | 0 mm | - | - | - |
* Rain latest hour (hover to see other rain measurements)
** Current wind speed in m/s (hover to see current wind gust speed)